Preview of NWS' New Version of Forecast
This preview is not operational and should not be used for support decisions.

Regional Weather Roundup (RWR)

Issued by National Weather Service (NWS)

                            
000
ASUS46 KPQR 181410
RWROR 

OREGON REGIONAL WEATHER ROUNDUP
NATIONAL WEATHER SERVICE PORTLAND OR
600 AM PST MON FEB 18 2019

NOTE: "FAIR" INDICATES FEW OR NO CLOUDS BELOW 12,000 FEET WITH
NO SIGNIFICANT WEATHER AND/OR OBSTRUCTIONS TO VISIBILITY.

ORZ001>013-181500-
NORTHWEST OREGON

  
CITY           SKY/WX    TMP DP  RH WIND       PRES   REMARKS
ASTORIA        CLOUDY    33  32  96 CALM      30.38S                  
TILLAMOOK      PTCLDY    28  27  93 SW3       30.41R                  
NEWPORT        CLEAR     30  30 100 E3        30.41R                  
PORTLAND       FOG       32  30  92 NW3       30.40S VSB 1/4          
VANCOUVER WA   FOG       31  30  96 NW3       30.40R VSB 1/4          
SCAPPOOSE      FOG       30  28  92 CALM      30.40S VSB 1/4          
HILLSBORO      MOCLDY    27  26  96 CALM      30.38S FOG              
AURORA         FOG       28  27  96 CALM      30.40R VSB 1/4          
MCMINNVILLE    FOG       27  26  96 W3        30.39S VSB 1/4          
SALEM          PTCLDY    29  27  92 CALM      30.38S FOG              
CORVALLIS      FOG       29  28  96 NE3       30.40R VSB 1/4          
EUGENE         CLOUDY    32  30  92 CALM      30.39S                  
$$

ORZ021-028-181500-
SOUTHWEST OREGON

  
CITY           SKY/WX    TMP DP  RH WIND       PRES   REMARKS
NORTH BEND     CLEAR     31  31 100 SE7       30.41R                  
BROOKINGS      CLEAR     33  29  85 SE3       30.32S                  
ROSEBURG       CLOUDY    33  32  96 CALM      30.38S                  
SEXTON SUMMIT  LGT SNOW  24  22  91 N7        30.19S VSB 1            
GRANTS PASS    FOG       28  27  93 CALM      30.37S VSB 1            
MEDFORD        CLOUDY    29  27  92 CALM      30.33R                  
$$

ORZ014>016-041-181500-
COLUMBIA GORGE

  
CITY           SKY/WX    TMP DP  RH WIND       PRES   REMARKS
TROUTDALE      FOG       33  31  92 W6        30.40R VSB 1            
HOOD RIVER     FOG       32  32 100 CALM      30.37R VSB 1/2          
THE DALLES     CLOUDY    33  31  92 E5        30.39R FOG              
$$

ORZ029>031-041-044-049-050-061>064-502-503-505>511-181500-
EASTERN OREGON

  
CITY           SKY/WX    TMP DP  RH WIND       PRES   REMARKS
MADRAS         NOT AVBL                                               
REDMOND        CLOUDY    29  25  85 NW7       30.23R                  
BEND           CLOUDY    28  25  86 NW8       30.22S                  
PRINEVILLE     CLOUDY    27  25  93 W6        30.22R                  
KLAMATH FALLS  CLEAR     15  11  83 N3        30.17R                  
LAKEVIEW       FLURRIES  21  18  88 N9        30.11S                  
HERMISTON      CLOUDY    25  18  74 SE5       30.37S                  
PENDLETON      CLOUDY    24  20  84 CALM      30.31R                  
JOHN DAY       CLOUDY    26  20  77 CALM      30.17R                  
MEACHAM        FLURRIES  20  16  84 CALM      30.16S                  
LA GRANDE      CLOUDY    26  18  71 W14       30.21R WCI  14          
BAKER CITY     MOCLDY    26  18  71 NW22      30.13S WCI  12          
BURNS          PTCLDY    17  13  84 W9        30.12R                  
ROME             N/A      6   2  83 CALM      30.08R                  
ONTARIO        PTCLDY    31  21  66 NW10      30.14S WCI  22          
$$